This demonstration page uses our WeatherBlox Daily Observations layout. Learn more.

Left ArrowRight Arrow

39.92423, -83.80882

Hourly Observations for April 19, 2022

Temp ( °F °C ) Dew Point ( °F °C ) Humidity (%) Winds ( mph kmh ) Pressure ( in mb ) Visibility ( mi km ) Precip ( " mm )
12:43 am 00:43 Cloudy 36 2 32 0 87 87 W 18 30 30.06 1018 10 16 0.00 0.00
12:56 am 00:56 Cloudy 35 1.7 32 0 89 89 W 16 26 30.05 1018 10 16 0.00 0.00
1:04 am 01:04 Cloudy with Light Rain 36 2 34 1 93 93 W 16 26 30.06 1018 10 16 0.00 0.00
1:23 am 01:23 Cloudy with Light Snow 34 1 34 1 100 100 WNW 17 28 30.07 1018 9 14 0.00 0.00
1:31 am 01:31 Cloudy with Light Snow 34 1 34 1 100 100 W 15 24 30.07 1018 9 14 0.00 0.00
1:56 am 01:56 Cloudy with Light Snow 34 1.1 31 -0.6 89 89 WNW 16 26 30.05 1018 9 14 0.00 0.00
2:56 am 02:56 Cloudy with Light Wintry Mix 34 1.1 29 -1.7 82 82 WNW 16 26 30.04 1017 10 16 0.00 0.00
3:56 am 03:56 Windy with Snow Likely 34 1.1 31 -0.6 89 89 W 20 31 30.04 1017 8 13 0.00 0.00
4:56 am 04:56 Cloudy with Light Snow 34 1.1 33 0.6 97 97 W 17 28 30.04 1017 9 14 0.00 0.00
5:56 am 05:56 Cloudy 34 1.1 30 -1.1 85 85 W 16 26 30.05 1018 10 16 0.00 0.00
6:56 am 06:56 Cloudy 34 1.1 31 -0.6 89 89 WNW 13 20 30.07 1018 10 16 0.00 0.00
7:56 am 07:56 Cloudy with Light Rain 34 1.1 32 0 92 92 W 17 28 30.10 1019 6 10 0.00 0.00
8:56 am 08:56 Cloudy with Light Rain 34 1.1 34 1.1 100 100 WNW 14 22 30.11 1020 10 16 0.00 0.00
9:56 am 09:56 Cloudy 36 2.2 34 1.1 93 93 W 18 30 30.12 1020 10 16 0.00 0.00
10:14 am 10:14 Cloudy 36 2 34 1 93 93 W 16 26 30.15 1021 10 16 0.00 0.00
10:56 am 10:56 Cloudy 37 2.8 33 0.6 86 86 WNW 15 24 30.15 1021 10 16 0.00 0.00
11:56 am 11:56 Cloudy 40 4.4 33 0.6 77 77 W 17 28 30.15 1021 10 16 0.00 0.00
12:56 pm 12:56 Cloudy 42 5.6 33 0.6 71 71 W 17 28 30.17 1022 10 16 0.00 0.00
1:08 pm 13:08 Cloudy 43 6 32 0 66 66 WNW 18 30 30.17 1022 10 16 0.00 0.00
1:56 pm 13:56 Cloudy 42 5.6 32 0 68 68 W 20 31 30.17 1022 10 16 0.00 0.00
2:56 pm 14:56 Cloudy 45 7.2 32 0 61 61 WNW 20 31 30.17 1022 10 16 0.00 0.00
3:56 pm 15:56 Cloudy 45 7.2 28 -2.2 52 52 WNW 21 33 30.17 1022 10 16 0.00 0.00
4:56 pm 16:56 Cloudy 46 7.8 29 -1.7 51 51 W 21 33 30.17 1022 10 16 0.00 0.00
5:56 pm 17:56 Cloudy 46 7.8 28 -2.2 50 50 WNW 16 26 30.19 1022 10 16 0.00 0.00
6:56 pm 18:56 Mostly Sunny 46 7.8 26 -3.3 46 46 W 18 30 30.20 1023 10 16 0.00 0.00
7:56 pm 19:56 Partly Cloudy 44 6.7 28 -2.2 53 53 WNW 12 19 30.22 1023 10 16 0.00 0.00
8:56 pm 20:56 Clear 39 3.9 28 -2.2 65 65 WNW 6 9 30.24 1024 10 16 0.00 0.00
9:08 pm 21:08 Mostly Clear 39 4 28 -2 65 65 WNW 6 9 30.25 1024 10 16 0.00 0.00
9:56 pm 21:56 Clear 37 2.8 28 -2.2 70 70 WNW 5 7 30.27 1025 10 16 0.00 0.00
10:56 pm 22:56 Clear 32 0 28 -2.2 85 85 Calm 30.28 1025 10 16 0.00 0.00
11:56 pm 23:56 Clear 35 1.7 28 -2.2 76 76 NE 3 6 30.29 1026 10 16 0.00 0.00

Powered by AerisWeather